Location: Peterborough
(44.3091°N, 78.3197°W)
Time: 13:03:26
(UTC-04:00)

BlueWalker 3 - Visible Passes

Search period start: 15 March 2026 00:00
Search period end: 25 March 2026 00:00
Orbit: 451 x 457 km, 53.2° (Epoch: 15 March)

Date Brightness Start Highest point End Pass type
(mag) Time Alt. Az. Time Alt. Az. Time Alt. Az.
15 Mar 5.0 04:19:58 13° ENE 04:19:58 13° ENE 04:20:36 10° ENE visible
15 Mar 1.9 05:53:40 25° NW 05:55:35 70° NNE 05:59:09 10° ESE visible
16 Mar 2.3 05:19:14 55° NNE 05:19:22 55° NNE 05:22:53 10° ESE visible
17 Mar 4.0 04:44:58 23° E 04:44:58 23° E 04:46:34 10° E visible
17 Mar 2.6 06:18:41 19° W 06:20:27 30° SW 06:23:36 10° SSE visible
18 Mar 2.3 05:44:37 38° SSW 05:44:37 38° SSW 05:47:39 10° SSE visible
19 Mar 4.1 05:10:47 16° SSE 05:10:47 16° SSE 05:11:36 10° SE visible
20 Mar 4.3 21:20:45 10° SSW 21:20:58 11° SSW 21:20:58 11° SSW visible
21 Mar 2.9 20:44:48 10° S 20:47:31 25° SE 20:47:31 25° SE visible
22 Mar 3.2 20:09:00 10° S 20:11:37 19° SE 20:13:49 12° E visible
22 Mar 3.0 21:45:11 10° WSW 21:47:34 38° W 21:47:34 38° W visible
23 Mar 1.7 21:08:51 10° WSW 21:12:26 82° NW 21:13:36 41° NE visible
23 Mar 5.2 22:47:17 10° WNW 22:47:19 10° WNW 22:47:19 10° WNW visible
24 Mar 1.6 20:32:33 10° SW 20:36:07 78° SE 20:39:23 12° ENE visible
24 Mar 4.0 22:10:46 10° WNW 22:13:06 24° NW 22:13:06 24° NW visible
